星链-5905 (STARLINK-5905 )

导读

STARLINK-5905是美国太空探索技术公司(SpaceX)星链(Starlink)项目的卫星,于2023年3月24日发射升空,属于星链星座组网卫星,旨在为全球提供高速互联网接入服务。星链项目通过大规模发射低轨卫星构建星座,提升全球网络覆盖能力。

Basic Information
目录编号:
55986
目录名称:
STARLINK-5905
国际标识:
2023-042A
轨道中心:
EARTH
卫星名称:
星链-5905
卫星全名:
星链-5905 (STARLINK-5905 )
卫星状态:
在轨 (已飞行1260 天)
发射日期:
2023-03-24 UTC
国别 :
美国 (US)
星等 :
--
Orbit Information
数据来源 国际轨道数据 AOE轨道数据
星历时间 2026-09-04T09:07:30+0800
11小时前
查看轨道信息
2026-08-30T20:00:00+0800
5天前
查看轨道信息
半长轴 6861.203km 6861.197km
偏心率 0.0001162 0.0001256
轨道倾角 43.002° 43.002°
近地点辐角 262.495° 251.870°
升交点赤经 132.606° 158.285°
平近点角 97.577° 274.346°
近地点 482.268km 482.198km
远地点 483.864km 483.922km
周期 94.267分钟 94.267分钟
每日圈数 15.275746 15.275764
Detailed Information
固有亮度:
5
最大亮度:
2.5
卫星平台:
Starlink v1.5
覆盖范围:
全球
运营商:
太空探索技术公司
运营商所在国:
美国
制造商(研发单位):
太空探索技术公司
制造商所在国:
美国
使用方式:
暂无
Satellite Introduction
星链(Starlink)计划是由太空探索技术公司(SpaceX)提出的一个巨型低轨卫星互联网星座项目,计划在2019年至2024年间在太空搭建由约1.2万颗卫星组成的“星链”网络,其中1584颗将部署在地球上空550千米处的近地轨道,并从2020年开始工作。该卫星仍在工作。
2D Orbit Map
3D Orbit Map
Orbit Altitude Analysis Chart
Orbit Inclination Analysis Chart
Orbit Comprehensive Analysis Chart
View Comprehensive Chart
Conjunction Data List
Event ID Objects TCA Miss Dist (km) Collision Risk Probability Collision Risk Index (CRI) Action
CDM_260905-194305-598606-731421
2026-09-05T
19:43:13+0000
0.368 km
远距离
2.681322E-4 高风险 0.84
CDM_260906-055505-598606-731421
2026-09-06T
05:55:12+0000
0.923 km
远距离
2.241804E-5 中风险 0.62
CDM_260905-180905-598606-731421
2026-09-05T
18:09:03+0000
2.207 km
极远距离
1.511442E-6 低风险 0.39
CDM_260906-072905-598606-731421
2026-09-06T
07:29:21+0000
2.821 km
极远距离
9.936719E-7 极低风险 0.35
CDM_260905-211705-598606-731421
2026-09-05T
21:17:22+0000
2.948 km
极远距离
9.415159E-7 极低风险 0.34
CDM_260829-155705-598605-752221
2026-08-29T
15:57:19+0000
2.574 km
极远距离
8.976591E-7 极低风险 0.34